User: anonymous   Login
Location: General Nathan Twining Observatory
(34.5931°N, 106.8201°W)
Time: 12:39:41
(UTC-07:00)
Language:

Cosmos 1937 Rocket - Orbit

View from above orbital plane
View from above orbital plane
View from above satellite
View from above satellite

Ground track
Ground track

The orbit data is extracted from the following two-line orbital elements,

1 19039U 88029B   18350.51380041 -.00000010  00000-0  52551-5 0  9993
2 19039  74.0485  11.4973 0022706  46.4017 313.9017 14.38420672609541
Epoch (UTC): 16 December 2018 12:19:52
Eccentricity: 0.0022706
inclination: 74.0485°
perigee height: 747 km
apogee height: 780 km
right ascension of ascending node: 11.4973°
argument of perigee: 46.4017°
revolutions per day: 14.38420672
mean anomaly at epoch: 313.9017°
orbit number at epoch: 60954

The dashed part of the orbit path shows where the satellite is in the earth's shadow,  

DLR